Location: Unspecified
(47.7670°N, 8.8522°E)
Time: 19:11:16
(UTC+01:00)

Tiangong - Pass Details

Date: 11 December 2022
Orbit: 383 x 386 km, 41.5° (Epoch: 30 January)

Event Time Altitude Azimuth Distance (km) Brightness Sun altitude
Rises 17:03:56 0° 261° (W) 2,253 3.4 -5.4°
Reaches altitude 10° 17:06:24 10° 242° (WSW) 1,399 2.6 -5.7°
Maximum altitude 17:08:40 18° 196° (SSW) 1,011 0.6 -6.1°
Drops below altitude 10° 17:10:56 10° 150° (SSE) 1,398 0.7 -6.4°
Sets 17:13:21 0° 131° (SE) 2,233 1.5 -6.8°
